TimePDT,TemperatureF,Dew PointF,Humidity,Sea Level PressureIn,VisibilityMPH,Wind Direction,Wind SpeedMPH,Gust SpeedMPH,PrecipitationIn,Events,Conditions,WindDirDegrees,DateUTC
12:52 AM,42.1,23.0,47,29.98,-9999.0,Calm,Calm,-,N/A,,Unknown,0,2013-09-28 07:52:00
1:52 AM,45.0,24.1,44,29.97,-9999.0,NE,5.8,-,N/A,,Unknown,40,2013-09-28 08:52:00
2:52 AM,43.0,24.1,47,29.97,-9999.0,Calm,Calm,-,N/A,,Unknown,0,2013-09-28 09:52:00
3:52 AM,43.0,24.1,47,29.96,-9999.0,NNE,3.5,-,N/A,,Unknown,20,2013-09-28 10:52:00
4:52 AM,37.9,24.1,57,29.96,-9999.0,NE,4.6,-,N/A,,Unknown,50,2013-09-28 11:52:00
5:52 AM,44.1,24.1,45,29.96,-9999.0,NNE,5.8,-,N/A,,Unknown,30,2013-09-28 12:52:00
6:52 AM,45.0,25.0,46,29.97,-9999.0,NNE,4.6,-,N/A,,Unknown,20,2013-09-28 13:52:00
7:52 AM,62.1,26.1,25,29.98,-9999.0,Variable,4.6,-,N/A,,Unknown,0,2013-09-28 14:52:00
8:52 AM,72.0,23.0,16,29.97,-9999.0,NE,15.0,20.7,N/A,,Unknown,50,2013-09-28 15:52:00
9:52 AM,73.9,21.9,14,29.98,-9999.0,ENE,19.6,27.6,N/A,,Unknown,60,2013-09-28 16:52:00
10:52 AM,75.0,19.0,12,29.99,-9999.0,ENE,18.4,28.8,N/A,,Unknown,60,2013-09-28 17:52:00
11:52 AM,78.1,19.9,11,29.99,-9999.0,East,18.4,23.0,N/A,,Unknown,80,2013-09-28 18:52:00
12:52 PM,79.0,19.0,11,29.98,-9999.0,East,13.8,20.7,N/A,,Unknown,80,2013-09-28 19:52:00
1:52 PM,80.1,17.1,9,29.95,-9999.0,NNE,11.5,-,N/A,,Unknown,30,2013-09-28 20:52:00
2:52 PM,81.0,16.0,9,29.94,-9999.0,NE,10.4,18.4,N/A,,Unknown,40,2013-09-28 21:52:00
3:52 PM,81.0,14.0,8,29.93,-9999.0,ENE,11.5,-,N/A,,Unknown,70,2013-09-28 22:52:00
4:52 PM,79.0,15.1,9,29.94,-9999.0,East,13.8,-,N/A,,Unknown,80,2013-09-28 23:52:00
5:52 PM,75.9,17.1,11,29.95,-9999.0,ENE,12.7,-,N/A,,Unknown,60,2013-09-29 00:52:00
6:52 PM,71.1,26.1,19,29.98,-9999.0,Calm,Calm,-,N/A,,Unknown,0,2013-09-29 01:52:00
7:52 PM,57.9,24.1,27,29.99,-9999.0,NNE,6.9,-,N/A,,Unknown,20,2013-09-29 02:52:00
8:52 PM,55.9,23.0,28,30.01,-9999.0,NE,5.8,-,N/A,,Unknown,40,2013-09-29 03:52:00
9:52 PM,52.0,21.9,31,30.02,-9999.0,NE,6.9,-,N/A,,Unknown,50,2013-09-29 04:52:00
10:52 PM,51.1,21.0,31,30.03,-9999.0,NE,3.5,-,N/A,,Unknown,50,2013-09-29 05:52:00
11:52 PM,48.0,21.0,34,30.03,-9999.0,NNE,4.6,-,N/A,,Unknown,30,2013-09-29 06:52:00